Location: Shenandoah County Park
(38.9356°N, 78.4524°W)
Time: 05:06:01
(UTC-05:00)

N. Korean satellite - Pass Details

Date: 02 December 2021
Orbit: 446 x 491 km, 97.3° (Epoch: 19 January)

Event Time Altitude Azimuth Distance (km) Brightness Sun altitude
Rises 05:25:44 0° 12° (NNE) 2,463 10.2 -20.7°
Reaches altitude 10° 05:27:47 10° 13° (NNE) 1,582 9.2 -20.3°
Maximum altitude 05:31:10 84° 101° (ESE) 454 6.3 -19.7°
Drops below altitude 10° 05:34:31 10° 191° (S) 1,565 9.2 -19.0°
Sets 05:36:32 0° 192° (SSW) 2,433 10.2 -18.6°
